STARLINK-11441 [DTC] (62413 NORAD) Tracking and Keplerian Element Data

This shows tracking and keplerian element data for the satellite.

Feedback or suggestion? Click here.




ElementValue
Catalog62413
NameSTARLINK-11441 [DTC]
Epoch Orbit651
Epoch Day35.08712792
Epoch Year2025
RAAN50.9508
Inclination42.9998
Eccentricity0.0001191
Argument of Perigee245.7659
Mean Anonmoly114.3086
Mean Motion15.77855158
Decay Rate1.508E-05
L11 62413U 24249E 25035.08712792 .00001508 00000+0 11529-4 0 9993
L22 62413 42.9998 50.9508 0001191 245.7659 114.3086 15.77855158 6513



Live tracking and technical data element details for STARLINK-11441 [DTC] (NORAD 62413). STARLINK-11441 [DTC] can be tracked NOW for your location showing map with azimuth and elevation plus other details from your city location.







IsCatalogInMostPopularTable: catalog: 62413, numindb: 15
Update: records affected: 1



GetName: 62413 STARLINK-11441 [DTC]

Hit Count: updated at: Mon, 19 May 2025 02:35:22 GMT